Fort Rucker / Ozark, AL

12:56 PM CDT on October 17, 2017 (GMT -0500)
Fort Rucker / Ozark

Weather History for KLOR - December, 2012

Change the Weather History Date:

Wednesday, December 26, 2012

  Actual Average (KOZR) Record (KOZR)
Temperature  
Mean Temperature 50 °F -  
Max Temperature 61 °F 58 °F 82 °F (2015)
Min Temperature 37 °F 36 °F 26 °F (1999)
Degree Days  
Heating Degree Days 15    
Moisture  
Dew Point 39 °F    
Average Humidity 70    
Maximum Humidity 88    
Minimum Humidity 58    
Precipitation  
Precipitation 0.53 in - - ()
Sea Level Pressure  
Sea Level Pressure 29.81 in    
Wind  
Wind Speed 13 mph (West)    
Max Wind Speed 20 mph    
Max Gust Speed 30 mph    
Visibility 10 miles    
Events Rain , Thunderstorm    
Averages and records for this station are not official NWS values.
T = Trace of Precipitation, MM = Missing Value Source: NWS Daily Summary

Daily Weather History Graph

Daily Weather History Graph

Search for Another Location

Airport or City:

Trip Planner

Search our weather history database for the weather conditions in past years. The results will help you decide how hot, cold, wet, or windy it might be!

Date:

Astronomy

Dec. 26, 2012 Rise Set
Actual Time 6:40 AM CST 4:47 PM CST
Civil Twilight 6:13 AM CST 5:14 PM CST
Nautical Twilight 5:43 AM CST 5:44 PM CST
Astronomical Twilight 5:13 AM CST 6:14 PM CST
Moon 3:38 PM CST (12/26) 5:05 AM CST (12/26)
Length of Visible Light 11h 00m
Length of Day
10h 07m
Waxing Gibbous, 97% of the Moon is Illuminated
Dec 26
Waxing Gibbous
Dec 28
Full
Jan 4
Last Quarter
Jan 11
New
Jan 18
First Quarter

Hourly Weather History & Observations

Time (CST) Temp. Windchill Dew Point Humidity Pressure Visibility Wind Dir Wind Speed Gust Speed Precip Events Conditions
12:07 AM 60.8 °F - 57.2 °F 88% 29.61 in 1.0 mi WSW 11.5 mph 26.5 mph 0.52 in Rain , Thunderstorm Light Thunderstorms and Rain
12:12 AM 60.8 °F - 57.2 °F 88% 29.61 in 4.0 mi SW 9.2 mph 23.0 mph 0.52 in Rain , Thunderstorm Light Thunderstorms and Rain
12:24 AM 60.8 °F - 57.2 °F 88% 29.61 in 10.0 mi WSW 11.5 mph - 0.52 in Rain , Thunderstorm Light Thunderstorms and Rain
12:53 AM 61.0 °F - 55.9 °F 83% 29.62 in 10.0 mi WSW 11.5 mph 19.6 mph 0.52 in Thunderstorm Thunderstorm
1:15 AM 60.8 °F - 53.6 °F 77% 29.63 in 10.0 mi WSW 9.2 mph 19.6 mph N/A   Overcast
1:53 AM 59.0 °F - 52.0 °F 78% 29.63 in 10.0 mi SW 10.4 mph 18.4 mph 0.01 in   Overcast
2:53 AM 57.9 °F - 50.0 °F 75% 29.63 in 10.0 mi SW 13.8 mph - 0.00 in   Overcast
3:53 AM 55.9 °F - 48.0 °F 75% 29.63 in 10.0 mi WSW 15.0 mph 21.9 mph N/A   Partly Cloudy
4:19 AM 55.4 °F - 46.4 °F 72% 29.64 in 10.0 mi WSW 17.3 mph 25.3 mph N/A Thunderstorm Thunderstorm
4:34 AM 55.4 °F - 46.4 °F 72% 29.65 in 10.0 mi WSW 11.5 mph 23.0 mph N/A   Scattered Clouds
4:53 AM 54.0 °F - 46.0 °F 75% 29.66 in 10.0 mi WSW 15.0 mph 24.2 mph N/A   Scattered Clouds
5:02 AM 53.6 °F - 46.4 °F 77% 29.66 in 10.0 mi West 8.1 mph 20.7 mph N/A   Mostly Cloudy
5:23 AM 53.6 °F - 44.6 °F 72% 29.68 in 10.0 mi WSW 18.4 mph 29.9 mph N/A   Scattered Clouds
5:53 AM 51.1 °F - 43.0 °F 74% 29.68 in 10.0 mi WSW 10.4 mph 24.2 mph N/A   Partly Cloudy
6:21 AM 51.8 °F - 42.8 °F 71% 29.70 in 10.0 mi WSW 13.8 mph 21.9 mph N/A   Overcast
6:53 AM 50.0 °F - 39.0 °F 66% 29.73 in 10.0 mi West 16.1 mph 29.9 mph N/A   Overcast
7:08 AM 48.2 °F - 37.4 °F 66% 29.75 in 10.0 mi West 15.0 mph 27.6 mph N/A   Mostly Cloudy
7:37 AM 46.4 °F 39.2 °F 35.6 °F 66% 29.77 in 10.0 mi West 18.4 mph 24.2 mph N/A   Mostly Cloudy
7:53 AM 45.0 °F 37.9 °F 34.0 °F 65% 29.78 in 10.0 mi West 16.1 mph 25.3 mph N/A   Overcast
8:53 AM 43.0 °F 34.8 °F 30.0 °F 60% 29.83 in 10.0 mi WNW 18.4 mph 26.5 mph N/A   Overcast
9:53 AM 43.0 °F 36.8 °F 30.9 °F 62% 29.87 in 10.0 mi WNW 11.5 mph 20.7 mph N/A   Overcast
10:31 AM 42.8 °F 35.1 °F 32.0 °F 66% 29.89 in 10.0 mi WNW 16.1 mph 25.3 mph N/A   Overcast
10:53 AM 43.0 °F 36.0 °F 30.9 °F 62% 29.89 in 10.0 mi WNW 13.8 mph 26.5 mph N/A   Overcast
11:53 AM 44.1 °F 35.9 °F 30.0 °F 58% 29.88 in 10.0 mi WNW 19.6 mph 28.8 mph N/A   Overcast
12:53 PM 44.1 °F 37.1 °F 30.9 °F 60% 29.89 in 10.0 mi WNW 15.0 mph 26.5 mph N/A   Overcast
1:53 PM 44.1 °F 37.1 °F 30.0 °F 58% 29.90 in 10.0 mi WNW 15.0 mph 20.7 mph N/A   Overcast
2:53 PM 44.1 °F 38.1 °F 30.9 °F 60% 29.92 in 10.0 mi NW 11.5 mph 20.7 mph N/A   Overcast
3:53 PM 43.0 °F 37.2 °F 30.0 °F 60% 29.96 in 10.0 mi NW 10.4 mph 21.9 mph N/A   Overcast
4:53 PM 42.1 °F 34.5 °F 30.0 °F 62% 29.98 in 10.0 mi NW 15.0 mph 21.9 mph N/A   Overcast
5:45 PM 41.0 °F 34.3 °F 30.2 °F 65% 30.01 in 10.0 mi NW 11.5 mph 18.4 mph N/A   Overcast
5:53 PM 41.0 °F 33.9 °F 30.0 °F 65% 30.02 in 10.0 mi NW 12.7 mph - N/A   Overcast
6:53 PM 39.9 °F 33.4 °F 30.0 °F 68% 30.03 in 10.0 mi NW 10.4 mph 21.9 mph N/A   Overcast
7:53 PM 39.9 °F 33.4 °F 30.0 °F 68% 30.05 in 10.0 mi NNW 10.4 mph 24.2 mph N/A   Overcast
8:53 PM 39.9 °F 32.9 °F 30.9 °F 70% 30.08 in 10.0 mi NNW 11.5 mph 18.4 mph N/A   Overcast
9:53 PM 39.0 °F 31.8 °F 28.9 °F 67% 30.09 in 10.0 mi NNW 11.5 mph 21.9 mph N/A   Overcast
10:53 PM 39.0 °F 32.8 °F 28.9 °F 67% 30.09 in 10.0 mi North 9.2 mph 17.3 mph N/A   Overcast
11:53 PM 37.9 °F 31.5 °F 28.9 °F 70% 30.08 in 10.0 mi NNW 9.2 mph - N/A   Overcast